Time,TemperatureF,DewpointF,PressureIn,WindDirection,WindDirectionDegrees,WindSpeedMPH,WindSpeedGustMPH,Humidity,HourlyPrecipIn,Conditions,Clouds,dailyrainin,SoftwareType,DateUTC
2013-03-06 00:02:00,29.0,24.0,-100.00,NW,305,11.0,19.0,84,-99.99,,,-99.99,,2013-03-06 06:02:00,
2013-03-06 00:11:00,28.0,24.0,-100.00,NW,305,9.0,15.0,84,-99.99,,,-99.99,,2013-03-06 06:11:00,
2013-03-06 00:22:00,29.0,24.0,-100.00,WNW,300,9.0,16.0,84,-99.99,,,-99.99,,2013-03-06 06:22:00,
2013-03-06 00:32:00,29.0,24.0,-100.00,NW,305,10.0,16.0,83,-99.99,,,-99.99,,2013-03-06 06:32:00,
2013-03-06 00:42:00,29.0,24.0,-100.00,NW,305,10.0,16.0,83,-99.99,,,-99.99,,2013-03-06 06:42:00,
2013-03-06 00:52:00,29.0,24.0,-100.00,WNW,300,9.0,17.0,83,-99.99,,,-99.99,,2013-03-06 06:52:00,
2013-03-06 01:01:00,29.0,24.0,-100.00,WNW,300,9.0,17.0,83,-99.99,,,-99.99,,2013-03-06 07:01:00,
2013-03-06 01:11:00,28.0,24.0,-100.00,NW,305,9.0,20.0,82,-99.99,,,-99.99,,2013-03-06 07:11:00,
2013-03-06 01:22:00,28.0,24.0,-100.00,NW,305,11.0,19.0,82,-99.99,,,-99.99,,2013-03-06 07:22:00,
2013-03-06 01:32:00,28.0,24.0,-100.00,NW,305,11.0,19.0,82,-99.99,,,-99.99,,2013-03-06 07:32:00,
2013-03-06 01:42:00,28.0,24.0,-100.00,NW,310,10.0,16.0,82,-99.99,,,-99.99,,2013-03-06 07:42:00,
2013-03-06 01:52:00,28.0,23.0,-100.00,NW,305,10.0,16.0,81,-99.99,,,-99.99,,2013-03-06 07:52:00,
2013-03-06 02:01:00,28.0,23.0,-100.00,NW,305,10.0,16.0,81,-99.99,,,-99.99,,2013-03-06 08:01:00,
2013-03-06 02:11:00,28.0,23.0,-100.00,NW,305,11.0,17.0,81,-99.99,,,-99.99,,2013-03-06 08:11:00,
2013-03-06 02:21:00,28.0,23.0,-100.00,NW,315,11.0,21.0,80,-99.99,,,-99.99,,2013-03-06 08:21:00,
2013-03-06 02:32:00,28.0,23.0,-100.00,NW,315,11.0,21.0,80,-99.99,,,-99.99,,2013-03-06 08:32:00,
2013-03-06 02:42:00,28.0,23.0,-100.00,NW,305,11.0,19.0,80,-99.99,,,-99.99,,2013-03-06 08:42:00,
2013-03-06 02:52:00,28.0,23.0,-100.00,NW,310,8.0,17.0,81,-99.99,,,-99.99,,2013-03-06 08:52:00,
2013-03-06 03:01:00,28.0,23.0,-100.00,NW,310,8.0,17.0,81,-99.99,,,-99.99,,2013-03-06 09:01:00,
2013-03-06 03:12:00,28.0,23.0,-100.00,NW,305,11.0,15.0,80,-99.99,,,-99.99,,2013-03-06 09:12:00,
2013-03-06 03:21:00,28.0,23.0,-100.00,WNW,295,9.0,13.0,81,-99.99,,,-99.99,,2013-03-06 09:21:00,
2013-03-06 03:32:00,28.0,23.0,-100.00,WNW,295,9.0,13.0,81,-99.99,,,-99.99,,2013-03-06 09:32:00,
2013-03-06 03:42:00,27.0,22.0,-100.00,WNW,295,11.0,16.0,82,-99.99,,,-99.99,,2013-03-06 09:42:00,
2013-03-06 03:52:00,27.0,22.0,-100.00,West,280,10.0,16.0,82,-99.99,,,-99.99,,2013-03-06 09:52:00,
2013-03-06 04:01:00,27.0,22.0,-100.00,West,280,10.0,16.0,82,-99.99,,,-99.99,,2013-03-06 10:01:00,
2013-03-06 04:11:00,26.0,22.0,-100.00,West,270,11.0,19.0,83,-99.99,,,-99.99,,2013-03-06 10:11:00,
2013-03-06 04:22:00,26.0,21.0,-100.00,WNW,295,9.0,16.0,83,-99.99,,,-99.99,,2013-03-06 10:22:00,
2013-03-06 04:32:00,26.0,21.0,-100.00,WNW,295,9.0,16.0,83,-99.99,,,-99.99,,2013-03-06 10:32:00,
2013-03-06 04:42:00,25.0,21.0,-100.00,WNW,290,8.0,14.0,84,-99.99,,,-99.99,,2013-03-06 10:42:00,
2013-03-06 04:52:00,25.0,20.0,-100.00,West,280,10.0,16.0,84,-99.99,,,-99.99,,2013-03-06 10:52:00,
2013-03-06 05:02:00,25.0,20.0,-100.00,West,280,10.0,16.0,84,-99.99,,,-99.99,,2013-03-06 11:02:00,
2013-03-06 05:11:00,24.0,20.0,-100.00,WNW,285,10.0,18.0,84,-99.99,,,-99.99,,2013-03-06 11:11:00,
2013-03-06 05:22:00,24.0,20.0,-100.00,WNW,290,11.0,19.0,85,-99.99,,,-99.99,,2013-03-06 11:22:00,
2013-03-06 05:32:00,24.0,20.0,-100.00,WNW,290,11.0,19.0,85,-99.99,,,-99.99,,2013-03-06 11:32:00,
2013-03-06 05:42:00,24.0,20.0,-100.00,WNW,295,11.0,15.0,85,-99.99,,,-99.99,,2013-03-06 11:42:00,
2013-03-06 05:52:00,23.0,19.0,-100.00,WNW,285,10.0,20.0,84,-99.99,,,-99.99,,2013-03-06 11:52:00,
2013-03-06 06:02:00,23.0,19.0,-100.00,WNW,285,10.0,20.0,84,-99.99,,,-99.99,,2013-03-06 12:02:00,
2013-03-06 06:11:00,24.0,20.0,-100.00,WNW,295,8.0,14.0,86,-99.99,,,-99.99,,2013-03-06 12:11:00,
2013-03-06 06:22:00,23.0,20.0,-100.00,WNW,290,8.0,14.0,85,-99.99,,,-99.99,,2013-03-06 12:22:00,
2013-03-06 06:33:00,23.0,20.0,-100.00,WNW,290,8.0,14.0,85,-99.99,,,-99.99,,2013-03-06 12:33:00,
2013-03-06 06:42:00,24.0,20.0,-100.00,WNW,285,9.0,19.0,85,-99.99,,,-99.99,,2013-03-06 12:42:00,
2013-03-06 06:52:00,24.0,20.0,-100.00,WNW,285,11.0,17.0,85,-99.99,,,-99.99,,2013-03-06 12:52:00,
2013-03-06 07:02:00,24.0,20.0,-100.00,WNW,285,11.0,17.0,85,-99.99,,,-99.99,,2013-03-06 13:02:00,
2013-03-06 07:12:00,24.0,20.0,-100.00,WNW,295,9.0,17.0,84,-99.99,,,-99.99,,2013-03-06 13:12:00,
2013-03-06 07:22:00,24.0,20.0,-100.00,WNW,295,8.0,13.0,84,-99.99,,,-99.99,,2013-03-06 13:22:00,
2013-03-06 07:32:00,24.0,20.0,-100.00,WNW,295,8.0,13.0,84,-99.99,,,-99.99,,2013-03-06 13:32:00,
2013-03-06 07:42:00,24.0,20.0,-100.00,WNW,300,7.0,12.0,83,-99.99,,,-99.99,,2013-03-06 13:42:00,
2013-03-06 07:52:00,24.0,20.0,-100.00,WNW,290,7.0,9.0,83,-99.99,,,-99.99,,2013-03-06 13:52:00,
2013-03-06 08:01:00,24.0,20.0,-100.00,WNW,290,7.0,9.0,83,-99.99,,,-99.99,,2013-03-06 14:01:00,
2013-03-06 08:11:00,24.0,20.0,-100.00,NW,305,8.0,13.0,82,-99.99,,,-99.99,,2013-03-06 14:11:00,
2013-03-06 08:22:00,25.0,20.0,-100.00,WNW,295,6.0,11.0,81,-99.99,,,-99.99,,2013-03-06 14:22:00,
2013-03-06 08:32:00,25.0,20.0,-100.00,WNW,295,6.0,11.0,81,-99.99,,,-99.99,,2013-03-06 14:32:00,
2013-03-06 08:42:00,26.0,21.0,-100.00,NW,305,9.0,17.0,79,-99.99,,,-99.99,,2013-03-06 14:42:00,
2013-03-06 08:52:00,27.0,21.0,-100.00,WNW,295,11.0,19.0,78,-99.99,,,-99.99,,2013-03-06 14:52:00,
2013-03-06 09:00:00,27.0,21.0,-100.00,NW,310,10.0,18.0,78,-99.99,,,-99.99,,2013-03-06 15:00:00,
2013-03-06 09:02:00,27.0,21.0,-100.00,WNW,295,11.0,19.0,78,-99.99,,,-99.99,,2013-03-06 15:02:00,
2013-03-06 09:11:00,27.0,21.0,-100.00,WNW,300,11.0,16.0,79,-99.99,,,-99.99,,2013-03-06 15:11:00,
2013-03-06 09:21:00,27.0,21.0,-100.00,WNW,295,9.0,19.0,79,-99.99,,,-99.99,,2013-03-06 15:21:00,
2013-03-06 09:32:00,27.0,21.0,-100.00,WNW,295,9.0,19.0,79,-99.99,,,-99.99,,2013-03-06 15:32:00,
2013-03-06 09:42:00,27.0,21.0,-100.00,NW,310,10.0,18.0,78,-99.99,,,-99.99,,2013-03-06 15:42:00,
2013-03-06 09:52:00,27.0,21.0,-100.00,NW,310,10.0,18.0,78,-99.99,,,-99.99,,2013-03-06 15:52:00,
2013-03-06 10:11:00,27.0,21.0,-100.00,NW,310,11.0,17.0,77,-99.99,,,-99.99,,2013-03-06 16:11:00,
2013-03-06 10:21:00,27.0,21.0,-100.00,NW,310,13.0,19.0,77,-99.99,,,-99.99,,2013-03-06 16:21:00,
2013-03-06 10:32:00,27.0,21.0,-100.00,NW,310,13.0,19.0,77,-99.99,,,-99.99,,2013-03-06 16:32:00,
2013-03-06 10:42:00,27.0,20.0,-100.00,WNW,300,9.0,17.0,75,-99.99,,,-99.99,,2013-03-06 16:42:00,
2013-03-06 10:52:00,28.0,21.0,-100.00,NW,320,11.0,14.0,75,-99.99,,,-99.99,,2013-03-06 16:52:00,
2013-03-06 11:01:00,28.0,21.0,-100.00,NW,320,11.0,14.0,75,-99.99,,,-99.99,,2013-03-06 17:01:00,
2013-03-06 11:11:00,28.0,20.0,-100.00,NW,325,10.0,14.0,74,-99.99,,,-99.99,,2013-03-06 17:11:00,
2013-03-06 11:22:00,28.0,20.0,-100.00,NW,320,11.0,16.0,74,-99.99,,,-99.99,,2013-03-06 17:22:00,
2013-03-06 11:32:00,28.0,20.0,-100.00,NW,320,11.0,16.0,74,-99.99,,,-99.99,,2013-03-06 17:32:00,
2013-03-06 11:42:00,28.0,21.0,-100.00,NW,315,9.0,16.0,74,-99.99,,,-99.99,,2013-03-06 17:42:00,
2013-03-06 11:53:00,29.0,22.0,-100.00,NW,305,9.0,14.0,75,-99.99,,,-99.99,,2013-03-06 17:53:00,
2013-03-06 12:02:00,29.0,22.0,-100.00,NW,305,9.0,14.0,75,-99.99,,,-99.99,,2013-03-06 18:02:00,
2013-03-06 12:28:00,28.0,22.0,-100.00,NW,305,8.0,14.0,79,-99.99,,,-99.99,,2013-03-06 18:28:00,
2013-03-06 12:42:00,28.0,25.0,-100.00,WNW,290,6.0,11.0,86,-99.99,,,-99.99,,2013-03-06 18:42:00,
2013-03-06 12:53:00,28.0,24.0,-100.00,WNW,290,6.0,11.0,83,-99.99,,,-99.99,,2013-03-06 18:53:00,
2013-03-06 13:02:00,28.0,24.0,-100.00,WNW,290,6.0,11.0,83,-99.99,,,-99.99,,2013-03-06 19:02:00,
2013-03-06 13:11:00,27.0,24.0,-100.00,NW,310,6.0,14.0,86,-99.99,,,-99.99,,2013-03-06 19:11:00,
2013-03-06 13:22:00,28.0,23.0,-100.00,NW,305,7.0,11.0,82,-99.99,,,-99.99,,2013-03-06 19:22:00,
2013-03-06 13:32:00,28.0,23.0,-100.00,NW,305,7.0,11.0,82,-99.99,,,-99.99,,2013-03-06 19:32:00,
2013-03-06 13:43:00,27.0,23.0,-100.00,WNW,295,8.0,12.0,83,-99.99,,,-99.99,,2013-03-06 19:43:00,
2013-03-06 13:53:00,28.0,24.0,-100.00,WNW,300,7.0,11.0,83,-99.99,,,-99.99,,2013-03-06 19:53:00,
2013-03-06 14:02:00,28.0,24.0,-100.00,WNW,300,7.0,11.0,83,-99.99,,,-99.99,,2013-03-06 20:02:00,
2013-03-06 14:12:00,28.0,23.0,-100.00,NW,320,6.0,14.0,82,-99.99,,,-99.99,,2013-03-06 20:12:00,
2013-03-06 14:22:00,28.0,23.0,-100.00,WNW,300,5.0,12.0,82,-99.99,,,-99.99,,2013-03-06 20:22:00,
2013-03-06 14:32:00,28.0,23.0,-100.00,WNW,300,5.0,12.0,82,-99.99,,,-99.99,,2013-03-06 20:32:00,
2013-03-06 14:42:00,29.0,24.0,-100.00,WNW,290,8.0,11.0,84,-99.99,,,-99.99,,2013-03-06 20:42:00,
2013-03-06 14:53:00,28.0,25.0,-100.00,WNW,290,6.0,11.0,86,-99.99,,,-99.99,,2013-03-06 20:53:00,
2013-03-06 15:02:00,28.0,25.0,-100.00,WNW,290,6.0,11.0,86,-99.99,,,-99.99,,2013-03-06 21:02:00,
2013-03-06 15:12:00,28.0,24.0,-100.00,NW,325,5.0,11.0,84,-99.99,,,-99.99,,2013-03-06 21:12:00,
2013-03-06 15:22:00,28.0,22.0,-100.00,NW,310,8.0,13.0,77,-99.99,,,-99.99,,2013-03-06 21:22:00,
2013-03-06 15:32:00,28.0,22.0,-100.00,NW,310,8.0,13.0,77,-99.99,,,-99.99,,2013-03-06 21:32:00,
2013-03-06 15:42:00,29.0,22.0,-100.00,NW,305,5.0,9.0,77,-99.99,,,-99.99,,2013-03-06 21:42:00,
2013-03-06 15:52:00,29.0,22.0,-100.00,West,280,5.0,13.0,72,-99.99,,,-99.99,,2013-03-06 21:52:00,
2013-03-06 16:01:00,29.0,22.0,-100.00,West,280,5.0,13.0,72,-99.99,,,-99.99,,2013-03-06 22:01:00,
2013-03-06 16:11:00,29.0,21.0,-100.00,NW,305,6.0,11.0,73,-99.99,,,-99.99,,2013-03-06 22:11:00,
2013-03-06 16:22:00,29.0,21.0,-100.00,WNW,285,8.0,11.0,72,-99.99,,,-99.99,,2013-03-06 22:22:00,
2013-03-06 16:32:00,29.0,21.0,-100.00,WNW,285,8.0,11.0,72,-99.99,,,-99.99,,2013-03-06 22:32:00,
2013-03-06 16:42:00,29.0,22.0,-100.00,West,275,8.0,11.0,73,-99.99,,,-99.99,,2013-03-06 22:42:00,
2013-03-06 16:52:00,29.0,22.0,-100.00,West,260,5.0,11.0,74,-99.99,,,-99.99,,2013-03-06 22:52:00,
2013-03-06 17:01:00,29.0,22.0,-100.00,West,260,5.0,11.0,74,-99.99,,,-99.99,,2013-03-06 23:01:00,
2013-03-06 17:11:00,29.0,22.0,-100.00,West,265,4.0,11.0,74,-99.99,,,-99.99,,2013-03-06 23:11:00,
2013-03-06 17:21:00,29.0,22.0,-100.00,WSW,250,6.0,11.0,74,-99.99,,,-99.99,,2013-03-06 23:21:00,
2013-03-06 17:32:00,29.0,22.0,-100.00,WSW,250,6.0,11.0,74,-99.99,,,-99.99,,2013-03-06 23:32:00,
2013-03-06 17:42:00,29.0,22.0,-100.00,WNW,285,5.0,12.0,75,-99.99,,,-99.99,,2013-03-06 23:42:00,
2013-03-06 17:52:00,28.0,22.0,-100.00,WSW,250,5.0,11.0,75,-99.99,,,-99.99,,2013-03-06 23:52:00,
2013-03-06 18:01:00,28.0,22.0,-100.00,WSW,250,5.0,11.0,75,-99.99,,,-99.99,,2013-03-07 00:01:00,
2013-03-06 18:11:00,28.0,22.0,-100.00,West,280,5.0,12.0,76,-99.99,,,-99.99,,2013-03-07 00:11:00,
2013-03-06 18:21:00,28.0,21.0,-100.00,WNW,285,6.0,11.0,76,-99.99,,,-99.99,,2013-03-07 00:21:00,
2013-03-06 18:32:00,28.0,21.0,-100.00,West,270,7.0,13.0,76,-99.99,,,-99.99,,2013-03-07 00:32:00,
2013-03-06 18:42:00,28.0,21.0,-100.00,West,270,7.0,13.0,76,-99.99,,,-99.99,,2013-03-07 00:42:00,
2013-03-06 18:52:00,27.0,21.0,-100.00,West,270,4.0,11.0,76,-99.99,,,-99.99,,2013-03-07 00:52:00,
2013-03-06 19:01:00,27.0,21.0,-100.00,West,270,4.0,11.0,76,-99.99,,,-99.99,,2013-03-07 01:01:00,
2013-03-06 19:11:00,27.0,21.0,-100.00,WNW,285,6.0,11.0,76,-99.99,,,-99.99,,2013-03-07 01:11:00,
2013-03-06 19:21:00,27.0,21.0,-100.00,West,280,4.0,10.0,76,-99.99,,,-99.99,,2013-03-07 01:21:00,
2013-03-06 19:32:00,27.0,21.0,-100.00,West,280,4.0,10.0,76,-99.99,,,-99.99,,2013-03-07 01:32:00,
2013-03-06 19:42:00,27.0,21.0,-100.00,West,275,4.0,11.0,76,-99.99,,,-99.99,,2013-03-07 01:42:00,
2013-03-06 19:52:00,27.0,21.0,-100.00,WNW,285,3.0,9.0,76,-99.99,,,-99.99,,2013-03-07 01:52:00,
2013-03-06 20:01:00,27.0,21.0,-100.00,WNW,285,3.0,9.0,76,-99.99,,,-99.99,,2013-03-07 02:01:00,
2013-03-06 20:11:00,27.0,20.0,-100.00,NW,305,2.0,6.0,75,-99.99,,,-99.99,,2013-03-07 02:11:00,
2013-03-06 20:21:00,27.0,20.0,-100.00,WNW,295,4.0,7.0,76,-99.99,,,-99.99,,2013-03-07 02:21:00,
2013-03-06 20:32:00,27.0,20.0,-100.00,WNW,295,4.0,7.0,76,-99.99,,,-99.99,,2013-03-07 02:32:00,
2013-03-06 20:41:00,27.0,20.0,-100.00,WNW,295,4.0,7.0,76,-99.99,,,-99.99,,2013-03-07 02:41:00,
2013-03-06 21:02:00,27.0,20.0,-100.00,WNW,285,5.0,7.0,76,-99.99,,,-99.99,,2013-03-07 03:02:00,
2013-03-06 21:11:00,27.0,20.0,-100.00,NW,320,4.0,7.0,74,-99.99,,,-99.99,,2013-03-07 03:11:00,
2013-03-06 21:21:00,27.0,20.0,-100.00,WNW,285,1.0,6.0,76,-99.99,,,-99.99,,2013-03-07 03:21:00,
2013-03-06 21:32:00,27.0,20.0,-100.00,WNW,285,1.0,6.0,76,-99.99,,,-99.99,,2013-03-07 03:32:00,
2013-03-06 21:42:00,27.0,20.0,-100.00,NW,315,4.0,6.0,75,-99.99,,,-99.99,,2013-03-07 03:42:00,
2013-03-06 21:52:00,27.0,20.0,-100.00,WNW,290,4.0,6.0,75,-99.99,,,-99.99,,2013-03-07 03:52:00,
2013-03-06 22:01:00,27.0,20.0,-100.00,WNW,290,4.0,6.0,75,-99.99,,,-99.99,,2013-03-07 04:01:00,
2013-03-06 22:11:00,27.0,20.0,-100.00,NW,310,3.0,5.0,75,-99.99,,,-99.99,,2013-03-07 04:11:00,
2013-03-06 22:22:00,27.0,20.0,-100.00,NW,325,3.0,6.0,76,-99.99,,,-99.99,,2013-03-07 04:22:00,
2013-03-06 22:32:00,27.0,20.0,-100.00,NW,325,3.0,6.0,76,-99.99,,,-99.99,,2013-03-07 04:32:00,
2013-03-06 22:42:00,26.0,20.0,-100.00,NNW,335,2.0,6.0,75,-99.99,,,-99.99,,2013-03-07 04:42:00,
2013-03-06 22:52:00,26.0,20.0,-100.00,West,280,4.0,6.0,76,-99.99,,,-99.99,,2013-03-07 04:52:00,
2013-03-06 23:02:00,26.0,20.0,-100.00,West,280,4.0,6.0,76,-99.99,,,-99.99,,2013-03-07 05:02:00,
2013-03-06 23:12:00,26.0,20.0,-100.00,WNW,295,1.0,5.0,77,-99.99,,,-99.99,,2013-03-07 05:12:00,
2013-03-06 23:22:00,26.0,20.0,-100.00,West,270,1.0,6.0,77,-99.99,,,-99.99,,2013-03-07 05:22:00,
2013-03-06 23:32:00,26.0,20.0,-100.00,West,265,3.0,5.0,78,-99.99,,,-99.99,,2013-03-07 05:32:00,
2013-03-06 23:42:00,26.0,20.0,-100.00,West,265,3.0,5.0,78,-99.99,,,-99.99,,2013-03-07 05:42:00,
2013-03-06 23:52:00,26.0,20.0,-100.00,West,260,0.0,5.0,78,-99.99,,,-99.99,,2013-03-07 05:52:00,